Volkel, Netherlands

10:50 PM CET on November 17, 2017 (GMT +0100)
Volkel Air Base

Weather History for EHVK - March, 2014

Change the Weather History Date:

Wednesday, March 12, 2014

  Actual Average Record
Temperature  
Mean Temperature 48 °F -  
Max Temperature 62 °F 52 °F 62 °F (2014)
Min Temperature 33 °F 37 °F 19 °F (2006)
Degree Days  
Heating Degree Days 18    
Moisture  
Dew Point 40 °F    
Average Humidity 75    
Maximum Humidity 100    
Minimum Humidity 34    
Precipitation  
Precipitation 0.00 in - - ()
Sea Level Pressure  
Sea Level Pressure 30.47 in    
Wind  
Wind Speed 6 mph ()    
Max Wind Speed 9 mph    
Max Gust Speed -    
Visibility 3.7 miles    
Events      
Averages and records for this station are not official NWS values.
T = Trace of Precipitation, MM = Missing Value Source: Averaged Metar Reports

Daily Weather History Graph

Daily Weather History Graph

Search for Another Location

Airport or City:

Trip Planner

Search our weather history database for the weather conditions in past years. The results will help you decide how hot, cold, wet, or windy it might be!

Date:

Astronomy

Mar. 12, 2014 Rise Set
Actual Time 6:58 AM CET 6:36 PM CET
Civil Twilight 6:25 AM CET 7:09 PM CET
Nautical Twilight 5:46 AM CET 7:48 PM CET
Astronomical Twilight 5:06 AM CET 8:28 PM CET
Moon 2:31 PM CET (3/12) 4:43 AM CET (3/12)
Length of Visible Light 12h 44m
Length of Day
11h 37m
Waxing Gibbous, 84% of the Moon is Illuminated
Mar 12
Waxing Gibbous
Mar 16
Full
Mar 24
Last Quarter
Mar 30
New
Apr 7
First Quarter

Hourly Weather History & Observations

Time (CET) Temp. Windchill Dew Point Humidity Pressure Visibility Wind Dir Wind Speed Gust Speed Precip Events Conditions
12:00 AM 44 °F - 41 °F 84% 30.52 in 3 mi NE 6.7 mph - -   Mist
12:19 AM 42.8 °F 38.0 °F 41.0 °F 93% 30.51 in - ENE 8.1 mph - N/A   Mist
12:25 AM 42.8 °F 38.0 °F 41.0 °F 93% 30.51 in - ENE 8.1 mph - N/A   Mist
12:51 AM 44.6 °F 40.2 °F 41.0 °F 87% 30.48 in 3.1 mi NE 8.1 mph - N/A   Mist
12:55 AM 44.6 °F 39.7 °F 41.0 °F 87% 30.48 in 3.1 mi NE 9.2 mph - N/A   Mist
1:00 AM 45 °F - 42 °F 83% 30.51 in 3 mi NE 8.9 mph - -   Mist
1:09 AM 44.6 °F 40.2 °F 41.0 °F 87% 30.48 in 3.1 mi NE 8.1 mph - N/A   Mist
1:25 AM 44.6 °F 40.2 °F 41.0 °F 87% 30.48 in - NE 8.1 mph - N/A   Mist
1:55 AM 42.8 °F 38.6 °F 41.0 °F 93% 30.48 in 2.5 mi NE 6.9 mph - N/A   Mist
2:00 AM 42 °F - 40 °F 88% 30.50 in 2 mi NE 6.7 mph - -   Mist
2:00 AM 42.8 °F 38.6 °F 39.2 °F 87% 30.48 in - NE 6.9 mph - N/A   Mist
2:25 AM 41.0 °F 35.8 °F 39.2 °F 93% 30.48 in - ENE 8.1 mph - N/A   Mist
2:55 AM 39.2 °F 34.2 °F 37.4 °F 93% 30.48 in - ENE 6.9 mph - N/A   Mist
3:00 AM 39 °F - 37 °F 92% 30.49 in 2 mi ENE 6.7 mph - -   Mist
3:25 AM 39.2 °F 34.2 °F 37.4 °F 93% 30.48 in 1.7 mi ENE 6.9 mph - N/A   Mist
3:55 AM 39.2 °F 34.2 °F 37.4 °F 93% 30.48 in 1.8 mi ENE 6.9 mph - N/A   Mist
4:00 AM 39 °F - 38 °F 94% 30.49 in 2 mi ENE 6.7 mph - -   Mist
4:25 AM 39.2 °F 34.2 °F 37.4 °F 93% 30.48 in 1.7 mi ENE 6.9 mph - N/A   Mist
4:55 AM 39.2 °F 34.2 °F 37.4 °F 93% 30.48 in 1.6 mi ENE 6.9 mph - N/A   Mist
5:00 AM 38 °F - 37 °F 93% 30.49 in 1 mi ENE 6.7 mph - -   Mist
5:25 AM 37.4 °F 32.1 °F 37.4 °F 100% 30.48 in 1.4 mi ENE 6.9 mph - N/A   Mist
5:55 AM 37.4 °F 31.4 °F 35.6 °F 93% 30.48 in 1.3 mi ENE 8.1 mph - N/A   Mist
6:00 AM 37 °F - 36 °F 95% 30.50 in 1 mi ENE 8.9 mph - -   Mist
6:25 AM 37.4 °F 32.1 °F 35.6 °F 93% 30.48 in 1.1 mi ENE 6.9 mph - N/A   Mist
6:44 AM 37.4 °F 32.8 °F 35.6 °F 93% 30.48 in 0.9 mi ENE 5.8 mph - N/A   Mist
6:47 AM 37.4 °F 32.8 °F 35.6 °F 93% 30.48 in 1.1 mi ENE 5.8 mph - N/A   Mist
6:48 AM 35.6 °F 30.7 °F 35.6 °F 100% 30.48 in 1.2 mi NE 5.8 mph - N/A   Mist
6:55 AM 35.6 °F 30.7 °F 35.6 °F 100% 30.48 in 1.4 mi ENE 5.8 mph - N/A   Mist
7:00 AM 34 °F - 34 °F 98% 30.51 in 1 mi ENE 6.7 mph - -   Mist
7:01 AM 35.6 °F 30.7 °F 33.8 °F 93% 30.48 in 0.9 mi ENE 5.8 mph - N/A   Mist
7:25 AM 37.4 °F 32.8 °F 35.6 °F 93% 30.48 in 0.8 mi NE 5.8 mph - N/A   Mist
7:49 AM 37.4 °F 32.1 °F 35.6 °F 93% 30.48 in 1.1 mi ENE 6.9 mph - N/A   Mist
7:55 AM 37.4 °F 32.1 °F 35.6 °F 93% 30.48 in 1.1 mi ENE 6.9 mph - N/A   Mist
8:00 AM 38 °F - 37 °F 93% 30.51 in 1 mi ENE 6.7 mph - -   Mist
8:06 AM 37.4 °F 32.1 °F 37.4 °F 100% 30.48 in 1.1 mi ENE 6.9 mph - N/A   Mist
8:17 AM 39.2 °F 35.0 °F 39.2 °F 100% 30.48 in 1.4 mi ENE 5.8 mph - N/A   Mist
8:25 AM 41.0 °F 37.1 °F 39.2 °F 93% 30.51 in 1.6 mi ENE 5.8 mph - N/A   Partly Cloudy
8:35 AM 42.8 °F 38.6 °F 39.2 °F 87% 30.51 in - East 6.9 mph - N/A   Mist
8:49 AM 42.8 °F 38.6 °F 41.0 °F 93% 30.51 in - East 6.9 mph - N/A   Mist
8:55 AM 44.6 °F 40.7 °F 41.0 °F 87% 30.51 in - East 6.9 mph - N/A   Mist
9:00 AM 44 °F - 41 °F 85% 30.51 in 3 mi East 6.7 mph - -   Mist
9:25 AM 46.4 °F 42.9 °F 42.8 °F 87% 30.51 in - East 6.9 mph - N/A   Mist
9:34 AM 46.4 °F 43.5 °F 42.8 °F 87% 30.51 in 3.1 mi East 5.8 mph - N/A   Mist
9:37 AM 46.4 °F 42.9 °F 41.0 °F 81% 30.51 in 3.1 mi East 6.9 mph - N/A   Mist
9:55 AM 48.2 °F - 42.8 °F 82% 30.51 in 3.1 mi East 5.8 mph - N/A   Partly Cloudy
10:00 AM 49 °F - 43 °F 71% 30.52 in 3 mi East 6.7 mph - -   Mist
10:25 AM 50.0 °F - 42.8 °F 76% 30.51 in 3.7 mi ENE 5.8 mph - N/A   Haze
10:55 AM 51.8 °F - 42.8 °F 71% 30.51 in 3.7 mi ENE 5.8 mph - N/A   Haze
11:00 AM 53 °F - 44 °F 62% 30.52 in 4 mi ENE 6.7 mph - -   Light Haze
11:25 AM 53.6 °F - 42.8 °F 67% 30.51 in 4.3 mi ENE 6.9 mph - N/A   Haze
11:51 AM 55.4 °F - 42.8 °F 63% 30.48 in 5.0 mi East 9.2 mph - N/A   Haze
11:55 AM 55.4 °F - 42.8 °F 63% 30.48 in 5.0 mi East 9.2 mph - N/A   Haze
11:58 AM 55.4 °F - 42.8 °F 63% 30.48 in 4.3 mi East 8.1 mph - N/A   Haze
12:00 PM 56 °F - 43 °F 50% 30.51 in 4 mi East 8.9 mph - -   Light Haze
12:10 PM 57.2 °F - 42.8 °F 59% 30.48 in 5.0 mi East 8.1 mph - N/A   Haze
12:19 PM 57.2 °F - 42.8 °F 59% 30.48 in 4.3 mi East 9.2 mph - N/A   Haze
12:25 PM 57.2 °F - 42.8 °F 59% 30.48 in 4.3 mi East 8.1 mph - N/A   Haze
12:42 PM 59.0 °F - 42.8 °F 55% 30.48 in 5.0 mi ENE 9.2 mph - N/A   Haze
12:50 PM 59.0 °F - 41.0 °F 51% 30.48 in 4.3 mi East 8.1 mph - N/A   Haze
12:55 PM 59.0 °F - 41.0 °F 51% 30.48 in 5.0 mi East 8.1 mph - N/A   Haze
1:00 PM 58 °F - 40 °F 41% 30.49 in 5 mi East 8.9 mph - -   Light Haze
1:06 PM 59.0 °F - 41.0 °F 51% 30.48 in 5.6 mi East 6.9 mph - N/A   Haze
1:17 PM 59.0 °F - 41.0 °F 51% 30.45 in 4.3 mi East 6.9 mph - N/A   Haze
1:18 PM 59.0 °F - 42.8 °F 55% 30.45 in 5.0 mi East 6.9 mph - N/A   Haze
1:25 PM 59.0 °F - 41.0 °F 51% 30.45 in 5.6 mi ESE 5.8 mph - N/A   Haze
1:38 PM 59.0 °F - 41.0 °F 51% 30.45 in 5.0 mi East 5.8 mph - N/A   Haze
1:55 PM 60.8 °F - 42.8 °F 52% 30.45 in 5.0 mi East 5.8 mph - N/A   Haze
2:00 PM 60 °F - 41 °F 39% 30.46 in 5 mi East 6.7 mph - -   Light Haze
2:25 PM 60.8 °F - 42.8 °F 52% 30.45 in 5.6 mi East 6.9 mph - N/A   Haze
2:55 PM 60.8 °F - 39.2 °F 45% 30.42 in 5.6 mi East 6.9 mph - N/A   Haze
3:00 PM 61 °F - 40 °F 34% 30.45 in 6 mi East 6.7 mph - -  
3:25 PM 62.6 °F - 41.0 °F 45% 30.42 in 6.2 mi ENE 6.9 mph - N/A   Unknown
3:55 PM 62.6 °F - 41.0 °F 45% 30.42 in 6.2 mi ENE 6.9 mph - N/A   Unknown
4:00 PM 62 °F - 41 °F 34% 30.44 in 6 mi ENE 6.7 mph - -  
4:20 PM 62.6 °F - 41.0 °F 45% 30.42 in 6.2 mi ENE 8.1 mph - N/A   Unknown
4:25 PM 62.6 °F - 42.8 °F 48% 30.42 in 6.2 mi ENE 8.1 mph - N/A   Unknown
4:55 PM 60.8 °F - 41.0 °F 48% 30.42 in 5.6 mi ENE 8.1 mph - N/A   Haze
5:00 PM 61 °F - 43 °F 39% 30.43 in 6 mi East 6.7 mph - -  
5:25 PM 59.0 °F - 41.0 °F 51% 30.42 in 6.2 mi ENE 8.1 mph - N/A   Unknown
5:55 PM 55.4 °F - 41.0 °F 58% 30.39 in 6.2 mi East 5.8 mph - N/A   Unknown
6:00 PM 55 °F - 41 °F 48% 30.42 in 6 mi ENE 4.5 mph - -   Scattered Clouds
6:25 PM 55.4 °F - 41.0 °F 58% 30.42 in 5.6 mi ENE 5.8 mph - N/A   Haze
6:55 PM 53.6 °F - 41.0 °F 62% 30.42 in 6.2 mi NNE 3.5 mph - N/A   Unknown
7:00 PM 52 °F - 40 °F 52% 30.43 in 6 mi NE 2.2 mph - -   Partly Cloudy
7:25 PM 48.2 °F - 39.2 °F 71% 30.42 in 5.6 mi ENE 1.2 mph - N/A   Haze
7:55 PM 46.4 °F - 39.2 °F 76% 30.42 in 5.6 mi ENE 1.2 mph - N/A   Haze
8:00 PM 47 °F - 39 °F 65% 30.43 in 6 mi ENE 2.2 mph - -   Light Haze
8:17 PM 44.6 °F - 39.2 °F 81% 30.42 in 4.3 mi ENE 1.2 mph - N/A   Haze
8:25 PM 44.6 °F - 39.2 °F 81% 30.42 in 5.0 mi NNE 1.2 mph - N/A   Haze
8:34 PM 44.6 °F - 39.2 °F 81% 30.42 in 4.3 mi NNE 1.2 mph - N/A   Haze
8:55 PM 42.8 °F - 37.4 °F 81% 30.42 in 4.3 mi NNE 1.2 mph - N/A   Mist
9:00 PM 43 °F - 38 °F 77% 30.43 in 4 mi NNE 2.2 mph - -   Light Haze
9:25 PM 42.8 °F - 37.4 °F 81% 30.39 in 3.7 mi NE 2.3 mph - N/A   Mist
9:55 PM 41.0 °F - 37.4 °F 87% 30.39 in 3.7 mi NE 1.2 mph - N/A   Mist
10:00 PM 41 °F - 37 °F 80% 30.42 in 4 mi NNE 2.2 mph - -   Mist
10:25 PM 39.2 °F - 37.4 °F 93% 30.39 in 3.7 mi North 2.3 mph - N/A   Mist
10:55 PM 39.2 °F - 37.4 °F 93% 30.39 in 3.1 mi NNE 2.3 mph - N/A   Mist
11:00 PM 39 °F - 36 °F 87% 30.42 in 3 mi NNE 2.2 mph - -   Mist
11:25 PM 39.2 °F - 35.6 °F 87% 30.39 in 3.1 mi NNE 2.3 mph - N/A   Mist
11:55 PM 39.2 °F - 37.4 °F 93% 30.39 in 3.1 mi NE 2.3 mph - N/A   Mist